FW9006 Weather Reports


time (UTC)temp
C
wind
direction
speed
KPH
gust
KPH
rain 1hr
cm
rain 24hr
cm
rain mn
cm
humidity
%
barometer
mb
20260507185521 11 303 4.8 17.7 0.00 0.00 0.00 40 1012.4
20260507184521 11 265 4.8 12.9 0.00 0.00 0.00 40 1012.4
20260507183541 11 306 4.8 11.3 0.00 0.00 0.00 40 1012.5
20260507182521 11 326 6.4 16.1 0.00 0.00 0.00 41 1012.5
20260507181521 11 308 4.8 12.9 0.00 0.00 0.00 41 1012.5
20260507180521 10 318 3.2 12.9 0.00 0.00 0.00 42 1012.4
20260507175541 10 328 8.0 16.1 0.00 0.00 0.00 41 1012.5
20260507174541 10 309 4.8 11.3 0.00 0.00 0.00 41 1012.6
20260507173541 11 274 6.4 14.5 0.00 0.00 0.00 40 1012.7
20260507172521 11 259 3.2 12.9 0.00 0.00 0.00 41 1012.7
20260507171521 11 308 6.4 19.3 0.00 0.00 0.00 42 1013.0
20260507170521 11 281 6.4 12.9 0.00 0.00 0.00 42 1013.2
20260507165521 10 318 4.8 16.1 0.00 0.00 0.00 42 1013.4
20260507164521 11 246 4.8 14.5 0.00 0.00 0.00 42 1013.6
20260507163521 10 280 4.8 9.7 0.00 0.00 0.00 43 1013.7
20260507162520 10 285 4.8 14.5 0.00 0.00 0.00 45 1013.7
20260507161521 10 311 6.4 20.9 0.00 0.00 0.00 45 1013.9
20260507160521 10 268 4.8 12.9 0.00 0.00 0.00 45 1014.0
20260507155520 10 294 6.4 17.7 0.00 0.00 0.00 46 1014.0
20260507154520 10 293 4.8 12.9 0.00 0.00 0.00 45 1014.0
20260507153521 10 306 4.8 16.1 0.00 0.00 0.00 45 1013.9
20260507152521 10 313 6.4 19.3 0.00 0.00 0.00 46 1013.9
20260507151521 9 285 4.8 12.9 0.00 0.00 0.00 46 1013.8
20260507150521 9 305 4.8 16.1 0.00 0.00 0.00 47 1013.8
20260507145520 10 310 4.8 11.3 0.00 0.00 0.00 46 1013.7
20260507144521 8 294 3.2 14.5 0.00 0.00 0.00 48 1013.8
20260507143521 8 296 4.8 12.9 0.00 0.00 0.00 47 1013.9
20260507142520 8 310 4.8 11.3 0.00 0.00 0.00 48 1014.0
20260507141520 8 320 8.0 22.5 0.00 0.00 0.00 48 1013.9
20260507140521 9 316 4.8 12.9 0.00 0.00 0.00 49 1014.1
20260507135521 9 290 3.2 4.8 0.00 0.00 0.00 51 1014.0
20260507134524 8 256 4.8 11.3 0.00 0.00 0.00 52 1013.9
20260507133520 8 269 1.6 9.7 0.00 0.00 0.00 56 1013.8
20260507132521 8 289 3.2 8.0 0.00 0.00 0.00 59 1013.8
20260507131520 7 305 3.2 8.0 0.00 0.00 0.00 60 1013.8
20260507130520 7 306 1.6 6.4 0.00 0.00 0.00 61 1013.8
20260507125541 7 284 3.2 11.3 0.00 0.00 0.00 62 1013.6
20260507124520 7 276 3.2 9.7 0.00 0.00 0.00 65 1013.6
20260507123520 6 312 1.6 4.8 0.00 0.00 0.00 67 1013.6
20260507122541 6 312 1.6 6.4 0.00 0.00 0.00 69 1013.6
20260507121520 6 225 1.6 6.4 0.00 0.00 0.00 70 1013.5
20260507120600 6 310 1.6 11.3 0.00 0.00 0.00 70 1013.5
20260507115541 5 224 1.6 6.4 0.00 0.00 0.00 71 1013.5
20260507114521 5 237 0.0 4.8 0.00 0.00 0.00 73 1013.3
20260507113520 3 241 1.6 4.8 0.00 0.00 0.00 75 1013.2
20260507112520 3 215 0.0 3.2 0.00 0.00 0.00 75 1013.1
20260507111541 3 222 1.6 4.8 0.00 0.00 0.00 75 1013.0
20260507110520 3 197 0.0 3.2 0.00 0.00 0.00 75 1012.8
20260507105600 3 0.0 0.0 0.00 0.00 0.00 74 1012.8
20260507104521 3 0.0 0.0 0.00 0.00 0.00 74 1012.7
20260507103520 3 0.0 0.0 0.00 0.00 0.00 74 1012.7
20260507102520 3 0.0 0.0 0.00 0.00 0.00 74 1012.7
20260507101520 3 0.0 0.0 0.00 0.00 0.00 74 1012.6
20260507100521 3 0.0 0.0 0.00 0.00 0.00 73 1012.5
20260507095541 3 0.0 0.0 0.00 0.00 0.00 73 1012.6
20260507094541 3 0.0 0.0 0.00 0.00 0.00 73 1012.6
20260507093519 3 0.0 0.0 0.00 0.00 0.00 73 1012.6
20260507092520 3 0.0 0.0 0.00 0.00 0.00 75 1012.7
20260507091519 3 0.0 0.0 0.00 0.00 0.00 75 1012.7
20260507090519 3 0.0 0.0 0.00 0.00 0.00 74 1012.8
20260507085519 3 0.0 0.0 0.00 0.00 0.00 73 1012.8
20260507084519 3 0.0 0.0 0.00 0.00 0.00 72 1012.8
20260507083519 3 0.0 0.0 0.00 0.00 0.00 72 1012.9
20260507082519 4 0.0 0.0 0.00 0.00 0.00 70 1012.8
20260507081540 4 0.0 0.0 0.00 0.00 0.00 70 1012.9
20260507080519 4 0.0 0.0 0.00 0.00 0.00 70 1013.0
20260507075519 4 0.0 0.0 0.00 0.00 0.00 69 1013.1
20260507074520 5 0.0 0.0 0.00 0.00 0.00 68 1013.1
20260507073519 5 0.0 0.0 0.00 0.00 0.00 66 1013.1
20260507072539 5 0.0 0.0 0.00 0.00 0.00 65 1013.0
20260507071519 6 323 0.0 3.2 0.00 0.00 0.00 64 1013.0
20260507070519 6 324 1.6 6.4 0.00 0.00 0.00 64 1013.0
20260507065520 6 323 3.2 9.7 0.00 0.00 0.00 63 1013.1
20260507064519 6 322 3.2 8.0 0.00 0.00 0.00 63 1013.3
20260507063520 6 321 3.2 8.0 0.00 0.00 0.00 62 1013.3
20260507062540 7 321 3.2 11.3 0.00 0.00 0.00 62 1013.2
20260507061520 7 323 4.8 11.3 0.00 0.00 0.00 61 1013.1
20260507060621 7 321 3.2 8.0 0.00 0.00 0.00 60 1013.1
20260507055519 7 309 3.2 6.4 0.00 0.00 0.00 59 1013.0
20260507054521 7 314 1.6 6.4 0.00 0.00 0.00 59 1013.1
20260507053519 7 0.0 0.0 0.00 0.00 0.00 61 1013.2
20260507052519 7 0.0 0.0 0.00 0.00 0.00 59 1013.1
20260507051519 7 0.0 0.0 0.00 0.00 0.00 58 1013.2
20260507050519 7 0.0 0.0 0.00 0.00 0.00 58 1013.2
20260507045519 7 0.0 0.0 0.00 0.00 0.00 57 1013.3
20260507044519 7 0.0 0.0 0.00 0.00 0.00 57 1013.2
20260507043519 7 0.0 0.0 0.00 0.00 0.00 57 1013.2
20260507042519 7 0.0 0.0 0.00 0.00 0.00 56 1013.2
20260507041519 7 0.0 0.0 0.00 0.00 0.00 56 1013.2
20260507040519 7 0.0 0.0 0.00 0.00 0.00 56 1013.2
20260507035519 7 0.0 0.0 0.00 0.00 0.00 55 1013.2
20260507034519 7 0.0 0.0 0.00 0.00 0.00 53 1013.1
20260507033519 8 0.0 0.0 0.00 0.00 0.00 52 1013.2
20260507032519 8 0.0 3.2 0.00 0.00 0.00 51 1013.2
20260507031519 8 295 1.6 3.2 0.00 0.00 0.00 50 1013.3
20260507030519 8 265 0.0 3.2 0.00 0.00 0.00 49 1013.2
20260507025519 8 318 1.6 3.2 0.00 0.00 0.00 50 1013.3
20260507024519 8 326 0.0 1.6 0.00 0.00 0.00 49 1013.2
20260507023519 8 332 1.6 4.8 0.00 0.00 0.00 49 1013.2
20260507022519 9 293 0.0 3.2 0.00 0.00 0.00 48 1013.1
20260507021519 9 274 0.0 3.2 0.00 0.00 0.00 48 1013.0
20260507020519 9 296 0.0 3.2 0.00 0.00 0.00 48 1013.0
20260507015519 9 273 0.0 6.4 0.00 0.00 0.00 47 1012.9
20260507014519 9 244 0.0 3.2 0.00 0.00 0.00 46 1012.8
20260507013519 9 240 0.0 4.8 0.00 0.00 0.00 46 1012.8
20260507012521 10 31 0.0 3.2 0.00 0.00 0.00 46 1012.7
20260507011518 10 65 0.0 1.6 0.00 0.00 0.00 45 1012.7
20260507010540 10 300 1.6 3.2 0.00 0.00 0.00 44 1012.7
20260507005519 10 254 0.0 4.8 0.00 0.00 0.00 44 1012.7
20260507004519 10 290 0.0 3.2 0.00 0.00 0.00 44 1012.7
20260507003519 10 295 1.6 4.8 0.00 0.00 0.00 44 1012.7
20260507002519 10 302 1.6 6.4 0.00 0.00 0.00 44 1012.5
20260507001519 10 275 1.6 4.8 0.00 0.00 0.00 43 1012.4
20260507000519 10 318 3.2 6.4 0.00 0.00 0.00 43 1012.4
20260506235519 10 296 1.6 4.8 0.00 0.00 0.00 42 1012.5
20260506234519 10 317 3.2 12.9 0.00 0.00 0.00 41 1012.4
20260506233519 11 323 3.2 8.0 0.00 0.00 0.00 41 1012.4
20260506232518 11 305 3.2 11.3 0.00 0.00 0.00 40 1012.4
20260506231539 11 321 4.8 16.1 0.00 0.00 0.00 41 1012.4
20260506230559 11 324 6.4 14.5 0.00 0.00 0.00 40 1012.4
20260506225518 11 319 4.8 12.9 0.00 0.00 0.00 39 1012.4
20260506224519 11 319 6.4 12.9 0.00 0.00 0.00 39 1012.4
20260506223519 11 317 4.8 17.7 0.00 0.00 0.00 39 1012.4
20260506222519 12 313 4.8 14.5 0.00 0.00 0.00 39 1012.4
20260506221519 12 238 4.8 14.5 0.00 0.00 0.00 37 1012.4
20260506220519 12 273 3.2 8.0 0.00 0.00 0.00 37 1012.3
20260506215518 12 313 6.4 19.3 0.00 0.00 0.00 38 1012.3
20260506214519 12 299 3.2 11.3 0.00 0.00 0.00 38 1012.4
20260506213519 11 294 3.2 19.3 0.00 0.00 0.00 38 1012.3
20260506212541 11 298 3.2 8.0 0.00 0.00 0.00 39 1012.3
20260506211518 11 325 9.7 25.7 0.00 0.00 0.00 38 1012.3
20260506210519 11 310 4.8 11.3 0.00 0.00 0.00 39 1012.3
20260506205539 12 316 4.8 11.3 0.00 0.00 0.00 37 1012.4
20260506204519 12 310 4.8 14.5 0.00 0.00 0.00 36 1012.4
20260506203519 12 300 4.8 16.1 0.00 0.00 0.00 37 1012.4
20260506202519 12 315 4.8 11.3 0.00 0.00 0.00 36 1012.4
20260506201519 13 264 4.8 14.5 0.00 0.00 0.00 34 1012.5
20260506195519 12 323 8.0 20.9 0.00 0.00 0.00 34 1012.5
20260506194519 12 262 3.2 16.1 0.00 0.00 0.00 36 1012.5
20260506193519 12 303 4.8 9.7 0.00 0.00 0.00 35 1012.6
20260506192519 12 312 4.8 14.5 0.00 0.00 0.00 36 1012.6
20260506191519 12 310 6.4 14.5 0.00 0.00 0.00 35 1012.5
20260506190519 12 283 4.8 14.5 0.00 0.00 0.00 36 1012.6